Weather History for Pratt, KS

Change the Weather History Date:

Saturday, October 26, 2013

  Actual Average (KP28) Record (KP28)
Temperature  
Mean Temperature 50 °F 55 °F  
Max Temperature 62 °F 67 °F 95 °F (1922)
Min Temperature 37 °F 42 °F 24 °F (1957)
Degree Days  
Heating Degree Days 16 11  
Month to date heating degree days 178  
Since 1 July heating degree days 212  
Cooling Degree Days 0 0  
Month to date cooling degree days 37  
Year to date cooling degree days 1768  
Moisture  
Dew Point 37 °F    
Average Humidity 61    
Maximum Humidity 94    
Minimum Humidity 20    
Precipitation  
Precipitation 0.02 in 0.08 in 1.90 in (1918)
Month to date precipitation 2.45  
Year to date precipitation 24.90  
Snow  
Snow 0.00 in 0.00 in - ()
Month to date snowfall 0.0  
Since 1 July snowfall 0.0  
Since 1 September snowfall 0.0  
Snow Depth -    
Sea Level Pressure  
Sea Level Pressure 30.17 in    
Wind  
Wind Speed 11 mph (North)    
Max Wind Speed 21 mph    
Max Gust Speed 24 mph    
Visibility 10 miles    
Events Rain , Thunderstorm    
T = Trace of Precipitation, MM = Missing Value Source: NWS Daily Summary

Daily Weather History Graph

Daily Weather History Graph

Search for Another Location

Airport:

Trip Planner

Search our weather history database for the weather conditions in past years. The results will help you decide how hot, cold, wet, or windy it might be!

Date:

Astronomy

Oct. 26, 2013 Rise Set
Actual Time 7:54 AM CDT 6:42 PM CDT
Civil Twilight 7:27 AM CDT 7:09 PM CDT
Nautical Twilight 6:56 AM CDT 7:40 PM CDT
Astronomical Twilight 6:26 AM CDT 8:10 PM CDT
Moon 12:06 AM CDT (10/26) 2:10 PM CDT (10/26)
Length of Visible Light 11h 42m
Length of Day
10h 48m
Waning Gibbous, 53% of the Moon is Illuminated
Oct 26
Waning Gibbous
Oct 26
Last Quarter
Nov 3
New
Nov 9
First Quarter
Nov 17
Full

Hourly Weather History & Observations

Time (CDT) Temp. Windchill Dew Point Humidity Pressure Visibility Wind Dir Wind Speed Gust Speed Precip Events Conditions
12:15 AM 51.8 °F - 42.8 °F 71% 30.12 in 10.0 mi SSW 16.1 mph 23.0 mph N/A   Clear
12:35 AM 51.8 °F - 42.8 °F 71% 30.12 in 10.0 mi SSW 17.3 mph - N/A   Clear
12:55 AM 51.8 °F - 42.8 °F 71% 30.11 in 10.0 mi SSW 17.3 mph - N/A   Clear
1:15 AM 51.8 °F - 42.8 °F 71% 30.12 in 10.0 mi SSW 11.5 mph - N/A   Clear
1:35 AM 51.8 °F - 42.8 °F 71% 30.12 in 10.0 mi SSW 10.4 mph - N/A   Clear
1:55 AM 51.8 °F - 44.6 °F 76% 30.12 in 10.0 mi SSW 5.8 mph - N/A   Clear
2:15 AM 51.8 °F - 44.6 °F 76% 30.11 in 10.0 mi SSW 8.1 mph - N/A   Clear
2:35 AM 51.8 °F - 44.6 °F 76% 30.10 in 10.0 mi SSW 13.8 mph - N/A   Clear
2:55 AM 51.8 °F - 44.6 °F 76% 30.10 in 10.0 mi SSW 11.5 mph - N/A   Clear
3:15 AM 53.6 °F - 44.6 °F 72% 30.10 in 10.0 mi SSW 15.0 mph - N/A   Clear
3:35 AM 53.6 °F - 46.4 °F 77% 30.10 in 10.0 mi SSW 13.8 mph - N/A   Clear
3:55 AM 53.6 °F - 46.4 °F 77% 30.09 in 10.0 mi SSW 11.5 mph - N/A   Clear
4:15 AM 53.6 °F - 46.4 °F 77% 30.09 in 10.0 mi SSW 11.5 mph - N/A   Clear
4:35 AM 53.6 °F - 46.4 °F 77% 30.09 in 10.0 mi SSW 9.2 mph - N/A   Clear
4:55 AM 53.6 °F - 46.4 °F 77% 30.08 in 10.0 mi SSW 10.4 mph - N/A   Clear
5:15 AM 53.6 °F - 46.4 °F 77% 30.08 in 10.0 mi SSW 12.7 mph - N/A   Clear
5:35 AM 53.6 °F - 46.4 °F 77% 30.08 in 10.0 mi SSW 11.5 mph - N/A   Clear
5:55 AM 51.8 °F - 46.4 °F 82% 30.09 in 10.0 mi SSW 8.1 mph - N/A   Clear
6:15 AM 51.8 °F - 46.4 °F 82% 30.10 in 10.0 mi SSW 5.8 mph - N/A   Clear
6:35 AM 51.8 °F - 46.4 °F 82% 30.10 in 10.0 mi SSW 4.6 mph - N/A   Clear
6:55 AM 50.0 °F - 46.4 °F 87% 30.11 in 10.0 mi Calm Calm - N/A   Clear
7:15 AM 50.0 °F - 46.4 °F 87% 30.11 in 10.0 mi SW 3.5 mph - N/A   Clear
7:35 AM 50.0 °F - 46.4 °F 87% 30.11 in 10.0 mi Calm Calm - N/A   Clear
7:55 AM 50.0 °F - 46.4 °F 87% 30.11 in 10.0 mi Calm Calm - N/A   Clear
8:15 AM 50.0 °F - 46.4 °F 87% 30.12 in 10.0 mi Calm Calm - N/A   Clear
8:35 AM 50.0 °F - 46.4 °F 87% 30.13 in 10.0 mi Calm Calm - N/A   Clear
8:55 AM 50.0 °F - 46.4 °F 87% 30.14 in 10.0 mi NNE 3.5 mph - N/A   Clear
9:15 AM 51.8 °F - 46.4 °F 82% 30.15 in 10.0 mi North 5.8 mph - N/A   Clear
9:35 AM 51.8 °F - 46.4 °F 82% 30.16 in 10.0 mi NNE 6.9 mph - N/A   Clear
9:55 AM 51.8 °F - 46.4 °F 82% 30.17 in 10.0 mi NNE 5.8 mph - N/A   Clear
10:15 AM 51.8 °F - 48.2 °F 88% 30.17 in 10.0 mi NNE 5.8 mph - N/A   Light Drizzle
10:35 AM 51.8 °F - 50.0 °F 94% 30.18 in 7.0 mi NNE 8.1 mph - 0.02 in Rain Rain
10:55 AM 51.8 °F - 46.4 °F 82% 30.19 in 10.0 mi NNE 10.4 mph - 0.02 in   Scattered Clouds
11:15 AM 50.0 °F - 44.6 °F 82% 30.20 in 10.0 mi NNE 16.1 mph - N/A   Scattered Clouds
11:35 AM 50.0 °F - 42.8 °F 76% 30.21 in 10.0 mi NNE 12.7 mph - N/A   Scattered Clouds
11:55 AM 50.0 °F - 42.8 °F 76% 30.21 in 10.0 mi NNE 12.7 mph - N/A   Scattered Clouds
12:15 PM 51.8 °F - 44.6 °F 76% 30.21 in 10.0 mi NNE 9.2 mph - N/A Thunderstorm Thunderstorm
12:35 PM 53.6 °F - 39.2 °F 58% 30.22 in 10.0 mi NNE 11.5 mph - N/A   Scattered Clouds
12:55 PM 53.6 °F - 37.4 °F 54% 30.23 in 10.0 mi NNE 10.4 mph - N/A   Mostly Cloudy
1:15 PM 53.6 °F - 35.6 °F 51% 30.23 in 10.0 mi NE 13.8 mph - N/A   Mostly Cloudy
1:35 PM 57.2 °F - 35.6 °F 44% 30.21 in 10.0 mi NNE 17.3 mph 24.2 mph N/A   Mostly Cloudy
1:55 PM 59.0 °F - 32.0 °F 36% 30.21 in 10.0 mi NE 15.0 mph - N/A   Mostly Cloudy
2:15 PM 60.8 °F - 32.0 °F 34% 30.20 in 10.0 mi NNE 19.6 mph 23.0 mph N/A   Mostly Cloudy
2:35 PM 59.0 °F - 30.2 °F 34% 30.19 in 10.0 mi NNE 15.0 mph 21.9 mph N/A   Overcast
2:55 PM 59.0 °F - 28.4 °F 31% 30.19 in 10.0 mi North 18.4 mph 24.2 mph N/A   Mostly Cloudy
3:15 PM 62.6 °F - 26.6 °F 26% 30.19 in 10.0 mi NNE 17.3 mph - N/A   Clear
3:35 PM 62.6 °F - 24.8 °F 24% 30.19 in 10.0 mi North 20.7 mph 24.2 mph N/A   Clear
3:55 PM 62.6 °F - 23.0 °F 22% 30.19 in 10.0 mi NNE 19.6 mph - N/A   Clear
4:15 PM 62.6 °F - 21.2 °F 20% 30.19 in 10.0 mi North 15.0 mph 20.7 mph N/A   Clear
4:35 PM 62.6 °F - 23.0 °F 22% 30.19 in 10.0 mi North 19.6 mph 23.0 mph N/A   Clear
4:55 PM 60.8 °F - 23.0 °F 23% 30.19 in 10.0 mi NNE 13.8 mph 18.4 mph N/A   Clear
5:15 PM 60.8 °F - 26.6 °F 27% 30.19 in 10.0 mi North 18.4 mph - N/A   Clear
5:35 PM 59.0 °F - 23.0 °F 25% 30.19 in 10.0 mi North 15.0 mph - N/A   Clear
5:55 PM 59.0 °F - 21.2 °F 23% 30.19 in 10.0 mi North 11.5 mph - N/A   Clear
6:15 PM 55.4 °F - 21.2 °F 26% 30.19 in 10.0 mi North 10.4 mph - N/A   Clear
6:35 PM 53.6 °F - 23.0 °F 30% 30.20 in 10.0 mi North 6.9 mph - N/A   Clear
6:55 PM 50.0 °F - 23.0 °F 35% 30.20 in 10.0 mi North 8.1 mph - N/A   Clear
7:15 PM 48.2 °F - 23.0 °F 37% 30.21 in 10.0 mi NNE 6.9 mph - N/A   Clear
7:35 PM 46.4 °F 42.9 °F 23.0 °F 40% 30.21 in 10.0 mi NNE 6.9 mph - N/A   Clear
7:55 PM 46.4 °F 44.3 °F 24.8 °F 43% 30.22 in 10.0 mi NNE 4.6 mph - N/A   Clear
8:15 PM 46.4 °F 45.2 °F 23.0 °F 40% 30.22 in 10.0 mi NNE 3.5 mph - N/A   Clear
8:35 PM 44.6 °F 42.2 °F 26.6 °F 49% 30.22 in 10.0 mi NNE 4.6 mph - N/A   Clear
8:55 PM 44.6 °F 43.1 °F 26.6 °F 49% 30.22 in 10.0 mi North 3.5 mph - N/A   Clear
9:15 PM 42.8 °F 41.1 °F 26.6 °F 53% 30.22 in 10.0 mi North 3.5 mph - N/A   Clear
9:35 PM 42.8 °F 40.1 °F 26.6 °F 53% 30.22 in 10.0 mi North 4.6 mph - N/A   Clear
9:55 PM 39.2 °F 35.9 °F 28.4 °F 65% 30.22 in 10.0 mi North 4.6 mph - N/A   Clear
10:15 PM 39.2 °F 35.9 °F 28.4 °F 65% 30.22 in 10.0 mi North 4.6 mph - N/A   Clear
10:35 PM 39.2 °F 35.9 °F 28.4 °F 65% 30.22 in 10.0 mi NNW 4.6 mph - N/A   Clear
10:55 PM 41.0 °F 38.0 °F 26.6 °F 57% 30.21 in 10.0 mi North 4.6 mph - N/A   Clear
11:15 PM 39.2 °F 35.9 °F 26.6 °F 61% 30.21 in 10.0 mi North 4.6 mph - N/A   Clear
11:35 PM 37.4 °F 32.8 °F 28.4 °F 70% 30.20 in 10.0 mi North 5.8 mph - N/A   Clear
11:55 PM 37.4 °F 32.8 °F 26.6 °F 65% 30.20 in 10.0 mi North 5.8 mph - N/A   Clear